Stations météo

réclame
Mon MeteoGroup
Pau, France (7610): Température de l'air & dewpoint: 18.06.2018 01:00:00 - 24.06.2018 01:00:00 (CEST)Pau, France (7610): Température de l'air 5cm: 18.06.2018 01:00:00 - 24.06.2018 01:00:00 (CEST)Pau, France (7610): Température de l'air -20cm & Température de l'air -100cm: 18.06.2018 01:00:00 - 24.06.2018 01:00:00 (CEST)Pau, France (7610): Vitesse du vent & gusts: 18.06.2018 01:00:00 - 24.06.2018 01:00:00 (CEST)Pau, France (7610): Direction du vent: 18.06.2018 01:00:00 - 24.06.2018 01:00:00 (CEST)Pau, France (7610): reduced air pressure: 18.06.2018 01:00:00 - 24.06.2018 01:00:00 (CEST)Pau, France (7610): visibility: 18.06.2018 01:00:00 - 24.06.2018 01:00:00 (CEST)Pau, France (7610): Ensoleillement: 18.06.2018 01:00:00 - 24.06.2018 01:00:00 (CEST)Pau, France (7610): Quantités de précipitations: 18.06.2018 01:00:00 - 24.06.2018 01:00:00 (CEST)
Date & Time tt [°C] td [°C] tt 5cm [°C] tt -20cm [°C] tt -100cm [°C] ff [km/h] ff [knt] fx [km/h] fx [knt] dd ppp [hPa] vv [km] sd [min] rr [mm]
24.06.2018 01:00:00 18,1 11,9 13,2 21,9 17,6 4 2 10 5 E 1019,2 27 0 0,0
24.06.2018 00:00:00 19,5 11,5 14,0 21,9 17,6 5 3 8 5 S 1019,4 26 0 0,0
23.06.2018 23:00:00 20,6 11,8 15,1 21,9 17,6 3 2 12 6 NE 1019,4 25 0 0,0
23.06.2018 22:00:00 21,7 12,3 16,9 21,8 17,6 6 3 14 8 NNE 1018,7 28 17 0,0
23.06.2018 21:00:00 24,8 11,0 21,0 21,7 17,5 10 6 17 9 NNE 1018,0 27 60 0,0
23.06.2018 20:00:00 26,0 9,8 25,0 21,6 17,6 12 6 24 13 NNE 1018,2 28 60 0,0
23.06.2018 19:00:00 26,4 10,1 27,3 21,4 17,5 11 6 22 12 NE 1018,3 36 60 0,0
23.06.2018 18:00:00 26,5 11,0 29,2 21,2 17,5 9 5 22 12 N 1018,6 28 60 0,0
23.06.2018 17:00:00 26,2 11,5 31,1 21,0 17,5 10 5 21 11 N 1018,9 20 60 0,0
23.06.2018 16:00:00 25,9 12,0 29,9 20,9 17,5 10 5 29 15 NNW 1019,1 41 60 0,0
23.06.2018 15:00:00 25,2 11,4 32,6 20,9 17,5 10 5 21 12 NNE 1019,6 45 60 0,0
23.06.2018 14:00:00 24,6 10,5 32,8 20,8 17,5 8 4 23 12 N 1020,2 20 60 0,0
23.06.2018 13:00:00 23,6 10,3 30,0 20,8 17,5 8 5 22 12 N 1020,7 35 60 0,0
23.06.2018 12:00:00 22,0 15,6 30,2 20,8 17,5 8 4 16 9 NNW 1021,1 15 60 0,0
23.06.2018 11:00:00 20,6 15,6 25,4 20,9 17,5 5 3 15 8 WNW 1021,2 17 60 0,0
23.06.2018 10:00:00 18,6 14,7 22,6 21,0 17,5 5 3 11 6 WSW 1021,5 19 60 0,0
23.06.2018 09:00:00 16,5 14,9 18,5 21,1 17,5 6 3 13 7 SSW 1021,5 8 60 0,0
23.06.2018 08:00:00 15,2 14,7 11,3 21,2 17,5 3 2 9 5 S 1021,5 7 48 0,0
23.06.2018 07:00:00 13,6 13,0 10,4 21,3 17,5 4 2 6 3 ESE 1021,5 0,9 12 0,0
23.06.2018 06:00:00 14,0 13,4 10,6 21,4 17,4 4 2 6 3 ESE 1021,2 0,4 0 0,0
23.06.2018 05:00:00 14,3 13,3 10,4 21,4 17,5 4 2 8 5 S 1021,1 6 0 0,2
23.06.2018 04:00:00 14,3 13,3 11,0 21,5 17,4 2 1 4 2 E 1021,2 9 0 0,0
23.06.2018 03:00:00 15,4 13,8 11,4 21,5 17,4 2 1 15 8 SSW 1021,2 19 0 0,0
23.06.2018 02:00:00 16,6 14,1 13,1 21,6 17,4 11 6 16 9 SW 1021,4 21 0 0,0
23.06.2018 01:00:00 17,7 14,0 14,3 21,6 17,4 8 5 18 10 W 1021,5 23 0 0,0
23.06.2018 00:00:00 19,6 14,4 15,7 21,6 17,4 7 4 11 6 SW 1021,2 27 0 0,0
22.06.2018 23:00:00 20,0 12,7 15,7 21,5 17,4 3 2 11 6 W 1021,2 36 0 0,0
22.06.2018 22:00:00 22,1 12,4 18,6 21,5 17,4 9 5 18 10 NNE 1020,4 18 17 0,0
22.06.2018 21:00:00 24,1 12,4 21,1 21,4 17,4 9 5 23 13 N 1019,9 33 60 0,0
22.06.2018 20:00:00 25,2 12,8 24,4 21,3 17,4 13 7 23 13 N 1019,5 30 46 0,0
22.06.2018 19:00:00 26,1 14,5 26,4 21,2 17,4 12 7 22 12 N 1019,3 31 53 0,0
22.06.2018 18:00:00 26,0 16,0 26,8 21,0 17,4 15 8 25 13 N 1019,4 25 44 0,0
22.06.2018 17:00:00 25,7 15,7 27,8 20,9 17,4 11 6 24 13 NNW 1019,6 19 47 0,0
22.06.2018 16:00:00 25,5 16,4 26,3 20,9 17,4 11 6 24 13 WNW 1019,9 20 31 0,0
22.06.2018 15:00:00 25,3 17,2 26,8 20,8 17,4 10 5 24 13 NW 1020,4 17 51 0,0
22.06.2018 14:00:00 24,2 18,4 25,1 20,8 17,4 12 7 28 15 WNW 1020,9 16 36 0,0
22.06.2018 13:00:00 22,3 19,1 24,3 20,9 17,4 14 7 22 12 NW 1021,3 11 28 0,0
22.06.2018 12:00:00 20,2 19,5 19,8 20,9 17,3 11 6 19 11 WSW 1021,5 2,5 0 0,0
22.06.2018 11:00:00 19,5 19,0 19,6 20,9 17,3 12 7 18 10 WSW 1021,4 1,9 0 0,0
22.06.2018 10:00:00 19,3 18,8 19,7 21,0 17,3 13 7 19 11 W 1021,4 1,5 0 0,0
22.06.2018 09:00:00 19,4 18,7 19,1 21,0 17,3 8 5 16 9 WSW 1021,1 3,5 0 0,0
22.06.2018 08:00:00 19,0 18,3 18,8 21,0 17,3 7 4 14 8 W 1021,0 3,2 0 0,2
22.06.2018 07:00:00 18,9 18,2 18,6 21,1 17,3 8 4 17 9 W 1021,0 2,2 0 0,0
22.06.2018 06:00:00 18,9 17,9 18,7 21,1 17,3 9 5 17 9 WSW 1020,9 3,6 0 0,0
22.06.2018 05:00:00 19,0 17,3 18,5 21,2 17,3 6 3 11 6 SW 1020,9 9 0 0,0
22.06.2018 04:00:00 18,9 17,4 17,7 21,2 17,3 7 4 11 6 W 1020,9 9 0 0,0
22.06.2018 03:00:00 19,0 17,1 18,5 21,3 17,3 8 4 18 10 WNW 1021,0 11 0 0,0
22.06.2018 02:00:00 19,0 17,1 18,2 21,3 17,3 9 5 17 9 WNW 1021,3 12 0 0,0
22.06.2018 01:00:00 19,1 17,1 18,6 21,3 17,2 9 5 15 8 W 1021,3 13 0 0,0
22.06.2018 00:00:00 19,6 17,2 19,0 21,3 17,2 8 4 16 9 W 1021,7 13 0 0,0
21.06.2018 23:00:00 19,8 17,4 18,7 21,4 17,2 11 6 17 9 W 1021,7 12 0 0,0
21.06.2018 22:00:00 20,7 17,7 19,5 21,3 17,2 11 6 20 11 NW 1020,9 15 0 0,0
21.06.2018 21:00:00 21,6 17,6 21,2 21,3 17,2 15 8 24 13 W 1020,3 16 43 0,0
21.06.2018 20:00:00 22,5 18,1 23,1 21,3 17,2 14 7 22 12 WNW 1019,8 16 25 0,0
21.06.2018 19:00:00 22,3 18,5 23,1 21,2 17,2 16 8 23 13 W 1020,1 18 0 0,0
21.06.2018 18:00:00 23,0 19,0 24,1 21,2 17,2 13 7 23 12 WNW 1020,0 14 0 0,0
21.06.2018 17:00:00 23,0 19,2 24,4 21,1 17,2 17 9 27 15 WNW 1020,2 13 0 0,0
21.06.2018 16:00:00 23,7 19,2 25,7 21,1 17,2 15 8 25 13 WNW 1020,0 12 3 0,0
21.06.2018 15:00:00 23,2 18,7 26,4 21,1 17,2 13 7 25 13 WNW 1020,0 13 2 0,0
21.06.2018 14:00:00 23,0 18,5 26,7 21,1 17,2 10 6 21 11 WSW 1019,8 8 1 0,0
21.06.2018 13:00:00 21,6 18,0 23,4 21,2 17,2 9 5 19 10 W 1020,3 8 0 0,0
21.06.2018 12:00:00 20,4 17,8 21,4 21,2 17,2 6 3 14 8 WNW 1020,5 4,9 0 0,0
21.06.2018 11:00:00 19,4 17,4 19,8 21,3 17,2 6 4 14 8 W 1020,5 4,2 0 0,0
21.06.2018 10:00:00 19,1 17,2 19,3 21,4 17,2 11 6 19 11 W 1020,7 4,8 0 0,0
21.06.2018 09:00:00 19,0 17,1 19,0 21,4 17,1 10 5 23 12 W 1020,8 7 0 0,0
21.06.2018 08:00:00 18,8 17,1 18,6 21,4 17,2 12 7 - - W 1020,5 7 0 0,0
21.06.2018 07:00:00 18,6 17,3 18,4 21,5 17,2 16 9 - - W 1020,1 7 0 0,0
21.06.2018 06:00:00 18,6 17,6 18,5 21,5 17,1 13 7 - - W 1019,6 3,6 0 0,0
21.06.2018 05:00:00 18,6 17,8 18,6 21,6 17,2 13 7 - - W 1019,5 2,9 0 0,0
21.06.2018 04:00:00 18,6 17,9 18,5 21,6 17,2 13 7 - - W 1019,7 2,5 0 0,0
21.06.2018 03:00:00 18,7 17,9 - 21,6 17,2 14 8 - - W 1019,7 2,2 - -
21.06.2018 02:00:00 19,0 18,0 - 21,6 17,1 16 9 - - WSW - 2,8 - -
21.06.2018 01:00:00 20,0 18,0 - 21,6 17,1 11 6 - - W - 5 - -
21.06.2018 00:00:00 21,0 19,0 - 21,5 17,2 11 6 - - W - 8 - -
20.06.2018 23:00:00 23,0 20,0 - 21,4 17,1 14 8 - - WNW - 13 - -
20.06.2018 22:00:00 27,0 20,0 - 21,2 17,1 4 2 - - NE - 21 - -
20.06.2018 21:00:00 30,0 19,0 - 21,0 17,1 8 5 - - NE - 50 - -
20.06.2018 20:00:00 31,0 19,0 - 20,9 17,1 9 5 - - NNE - 24 - -
20.06.2018 19:00:00 31,0 18,0 - 20,7 17,1 11 6 - - N - 25 - -
20.06.2018 18:00:00 31,0 17,0 - 20,4 17,1 8 4 - - ENE - 18 - -
20.06.2018 17:00:00 30,9 17,9 35,4 20,2 17,1 11 6 25 14 NE 1016,3 37 60 0,0
20.06.2018 16:00:00 30,8 17,8 33,6 20,0 17,1 13 7 22 12 NE 1016,5 19 60 0,0
20.06.2018 15:00:00 30,2 17,3 37,3 19,9 17,1 7 4 21 11 ENE 1016,8 1,0 60 0,0
20.06.2018 14:00:00 29,6 18,1 36,7 19,8 17,1 8 5 23 12 ENE 1017,2 0,8 60 0,0
20.06.2018 13:00:00 28,8 17,0 36,6 19,8 17,1 8 5 18 10 ENE 1017,5 1,1 60 0,0
20.06.2018 12:00:00 28,2 18,0 34,7 19,8 17,1 8 4 22 12 E 1017,7 24 60 0,0
20.06.2018 11:00:00 26,9 16,8 32,3 19,8 17,1 12 6 21 11 ENE 1017,8 41 60 0,0
20.06.2018 10:00:00 25,1 18,5 30,8 19,9 17,1 6 3 12 6 NE 1018,0 19 60 0,0
20.06.2018 09:00:00 21,9 17,3 22,9 19,9 17,1 3 1 9 5 S 1018,3 19 60 0,0
20.06.2018 08:00:00 18,8 16,2 15,2 20,0 17,1 6 3 9 5 ESE 1018,5 15 60 0,0
20.06.2018 07:00:00 16,4 15,6 13,8 20,1 17,1 3 2 9 5 ENE 1018,7 16 13 0,0
20.06.2018 06:00:00 15,9 15,1 13,5 20,1 17,1 6 3 8 5 E 1018,5 12 0 0,0
20.06.2018 05:00:00 16,3 15,2 13,3 20,2 17,1 5 3 7 4 SE 1018,7 19 0 0,0
20.06.2018 04:00:00 17,1 15,3 14,1 20,2 17,1 2 1 6 4 SW 1019,0 17 0 0,0
20.06.2018 03:00:00 17,2 15,5 14,7 20,2 17,1 4 2 5 3 E 1019,4 24 0 0,0
20.06.2018 02:00:00 17,6 15,8 14,9 20,2 17,1 3 2 9 5 E 1019,7 10 0 0,0
20.06.2018 01:00:00 19,3 15,8 15,6 20,2 17,0 5 3 10 6 SSE 1019,8 25 0 0,0
20.06.2018 00:00:00 19,8 16,1 16,5 20,1 17,0 4 2 7 4 E 1019,8 30 0 0,0
19.06.2018 23:00:00 20,4 16,4 17,3 20,1 17,0 5 3 9 5 NE 1020,0 30 0 0,0
19.06.2018 22:00:00 22,3 16,6 18,4 20,0 17,1 6 3 11 6 NE 1019,5 8 17 0,0
19.06.2018 21:00:00 24,6 16,3 22,1 19,8 17,1 9 5 18 10 NE 1019,6 39 58 0,0
19.06.2018 20:00:00 25,8 15,5 23,1 19,7 17,1 7 4 21 11 NNE 1019,8 45 39 0,0
19.06.2018 19:00:00 25,8 15,5 24,9 19,6 17,1 6 4 21 11 E 1020,1 46 33 0,0
19.06.2018 18:00:00 25,9 16,4 26,3 19,4 17,0 8 4 23 12 ENE 1020,5 41 34 0,0
19.06.2018 17:00:00 25,2 15,8 26,9 19,2 17,0 11 6 21 11 NE 1021,0 34 17 0,0
19.06.2018 16:00:00 25,4 15,7 28,5 19,1 17,0 6 3 26 14 ESE 1021,2 16 34 0,0
19.06.2018 15:00:00 25,1 16,0 27,1 19,0 17,0 11 6 - - ENE 1021,7 39 31 0,0
19.06.2018 14:00:00 23,9 15,9 27,3 18,9 17,0 13 7 23 13 NNE 1022,2 39 29 0,0
19.06.2018 13:00:00 23,7 16,5 27,0 18,9 17,0 10 6 24 13 E 1022,6 20 38 0,0
19.06.2018 12:00:00 22,9 16,0 25,8 18,9 17,0 10 6 19 10 NE 1023,1 30 25 0,0
19.06.2018 11:00:00 20,9 16,5 24,2 18,9 17,0 5 3 13 7 NE 1023,6 19 12 0,0
19.06.2018 10:00:00 19,6 15,3 23,2 19,0 17,1 6 3 13 7 NE 1024,4 24 33 0,0
19.06.2018 09:00:00 18,6 15,5 19,0 19,0 17,0 6 3 16 9 E 1024,8 19 35 0,0
19.06.2018 08:00:00 16,5 15,0 16,0 19,0 17,1 4 2 6 3 N 1025,2 16 0 0,0
19.06.2018 07:00:00 16,3 14,7 15,6 19,1 17,1 3 2 5 3 ENE 1025,2 19 0 0,0
19.06.2018 06:00:00 16,2 14,2 15,7 19,1 17,1 3 1 4 2 ESE 1025,3 5 0 0,0
19.06.2018 05:00:00 16,2 14,4 15,7 19,1 17,0 0 0 13 7 N 1025,5 23 0 0,0
19.06.2018 04:00:00 16,4 14,6 16,1 19,2 17,1 5 3 12 7 N 1025,7 20 0 0,0
19.06.2018 03:00:00 16,6 14,6 16,2 19,1 17,0 7 4 13 7 NNW 1025,7 18 0 0,0
19.06.2018 02:00:00 16,9 15,4 16,5 19,1 17,0 6 3 19 10 NNW 1025,9 17 0 0,0
19.06.2018 01:00:00 17,0 15,9 16,3 19,1 17,0 8 4 14 7 WNW 1026,0 21 0 0,0
19.06.2018 00:00:00 16,8 15,7 15,3 19,1 17,0 7 4 13 7 W 1026,4 27 0 0,0
18.06.2018 23:00:00 17,5 15,8 16,3 19,1 17,1 8 5 21 12 W 1026,2 27 0 0,0
18.06.2018 22:00:00 18,6 16,0 17,9 19,0 17,1 16 9 28 15 NW 1025,5 29 16 0,0
18.06.2018 21:00:00 20,3 16,3 20,0 18,9 17,0 16 9 23 12 NW 1025,3 29 57 0,0
18.06.2018 20:00:00 20,7 15,9 20,8 18,7 17,0 15 8 24 13 NW 1025,0 25 28 0,0
18.06.2018 19:00:00 21,9 16,0 23,8 18,6 17,0 16 9 26 14 NW 1024,9 24 37 0,0
18.06.2018 18:00:00 21,7 16,2 24,8 18,5 17,0 11 6 26 14 NW 1025,2 24 2 0,0
18.06.2018 17:00:00 21,6 15,9 24,7 18,4 17,1 13 7 35 19 NNW 1025,5 20 18 0,0
18.06.2018 16:00:00 21,5 15,1 26,0 18,3 17,0 7 4 20 11 NW 1025,6 31 18 0,0
18.06.2018 15:00:00 21,1 15,2 27,2 18,3 17,0 9 5 16 9 W 1025,8 17 39 0,0
18.06.2018 14:00:00 20,1 14,7 21,7 18,3 17,1 4 2 13 7 WSW 1026,3 16 11 0,0
18.06.2018 13:00:00 18,7 14,2 20,9 18,3 17,1 4 2 13 7 WSW 1026,8 31 0 0,0
18.06.2018 12:00:00 18,1 14,4 19,4 18,3 17,1 6 4 16 9 WNW 1027,0 29 4 0,0
18.06.2018 11:00:00 18,2 13,5 18,5 18,3 17,0 9 5 20 11 W 1027,0 19 32 0,0
18.06.2018 10:00:00 16,5 13,2 17,8 18,4 17,1 8 4 15 8 W 1027,5 13 4 0,0
18.06.2018 09:00:00 15,4 12,7 16,0 18,4 17,0 4 2 9 5 S 1027,2 20 0 0,0
18.06.2018 08:00:00 14,2 12,4 13,0 18,5 17,1 6 3 13 7 SE 1026,9 18 0 0,0
18.06.2018 07:00:00 13,1 11,8 12,3 18,6 17,1 6 3 9 5 ESE 1026,9 13 0 0,0
18.06.2018 06:00:00 12,5 11,6 11,1 18,7 17,1 6 3 8 5 SE 1026,6 13 0 0,0
18.06.2018 05:00:00 11,9 11,1 9,5 18,7 17,1 3 2 7 4 ENE 1026,6 17 0 0,0
18.06.2018 04:00:00 11,9 11,1 9,5 18,8 17,1 2 1 8 4 E 1026,7 13 0 0,0
18.06.2018 03:00:00 12,1 11,0 9,2 18,8 17,0 3 1 13 7 ENE 1026,9 13 0 0,0
18.06.2018 02:00:00 13,0 11,4 10,0 18,9 17,1 6 4 13 7 SSW 1026,7 10 0 0,0
18.06.2018 01:00:00 13,7 11,4 11,2 18,9 17,1 9 5 13 7 WSW 1026,8 12 0 0,0

tt = Température de l'air
td = dewpoint
tt 5cm = Température de l'air 5cm
tt -20cm = Température de l'air -20cm
tt -100cm = Température de l'air -100cm
ff = Vitesse du vent
fx = gusts
dd = Direction du vent
ppp = reduced air pressure
vv = visibility
sd = Ensoleillement
rr = Quantités de précipitations

stations d'obs. à proximité